N9EA Weather Reports


time (UTC)temp
C
wind
direction
speed
KPH
gust
KPH
rain 1hr
cm
rain 24hr
cm
rain mn
cm
humidity
%
barometer
mb
20260906070009 22 303 0.0 0.0 0.00 0.00 0.00 82 1016.5
20260906065508 22 302 0.0 0.0 0.00 0.00 0.00 82 1016.5
20260906065003 22 301 0.0 0.0 0.00 0.00 0.00 82 1016.7
20260906064459 22 306 0.0 0.0 0.00 0.00 0.00 82 1016.4
20260906063954 22 305 0.0 0.0 0.00 0.00 0.00 82 1016.9
20260906063450 22 323 0.0 0.0 0.00 0.00 0.00 82 1016.5
20260906062950 22 324 0.0 0.0 0.00 0.00 0.00 82 1016.8
20260906062445 22 324 0.0 0.0 0.00 0.00 0.00 82 1016.3
20260906061940 22 324 0.0 0.0 0.00 0.00 0.00 82 1016.7
20260906061436 22 330 0.0 0.0 0.00 0.00 0.00 82 1016.5
20260906060930 22 330 0.0 0.0 0.00 0.00 0.00 82 1016.5
20260906060427 22 330 0.0 0.0 0.00 0.00 0.00 82 1016.4
20260906055923 22 324 0.0 0.0 0.00 0.00 0.00 82 1016.3
20260906055419 22 304 0.0 0.0 0.00 0.00 0.00 82 1016.3
20260906054914 22 303 0.0 0.0 0.00 0.00 0.00 81 1016.4
20260906054409 22 303 0.0 0.0 0.00 0.00 0.00 81 1016.4
20260906053905 23 328 0.0 0.0 0.00 0.00 0.00 81 1016.5
20260906053401 23 329 0.0 0.0 0.00 0.00 0.00 81 1016.5
20260906052856 23 329 0.0 0.0 0.00 0.00 0.00 81 1016.7
20260906052352 23 329 0.0 0.0 0.00 0.00 0.00 81 1016.5
20260906051849 23 328 0.0 0.0 0.00 0.00 0.00 80 1016.7
20260906051349 23 328 0.0 0.0 0.00 0.00 0.00 80 1016.3
20260906050845 23 329 0.0 0.0 0.00 0.00 0.00 80 1016.5
20260906050339 23 329 0.0 0.0 0.00 0.00 0.00 80 1016.2
20260906045838 23 330 0.0 0.0 0.00 0.00 0.00 80 1016.4
20260906045332 23 324 0.0 0.0 0.00 0.00 0.00 80 1016.3
20260906044829 23 320 0.0 0.0 0.00 0.00 0.00 80 1016.1
20260906044329 23 323 0.0 0.0 0.00 0.00 0.00 80 1016.0
20260906043827 23 329 0.0 0.0 0.00 0.00 0.00 80 1015.9
20260906043321 23 328 0.0 0.0 0.00 0.00 0.00 80 1015.9
20260906042821 23 329 0.0 0.0 0.00 0.00 0.00 80 1015.9
20260906042320 23 330 0.0 0.0 0.00 0.00 0.00 79 1015.8
20260906041815 23 331 0.0 0.0 0.00 0.00 0.00 79 1015.8
20260906041311 23 324 0.0 0.0 0.00 0.00 0.00 79 1015.5
20260906040805 23 325 0.0 0.0 0.00 0.00 0.00 80 1015.4
20260906040301 23 324 0.0 0.0 0.00 0.00 0.00 80 1015.4
20260906035756 23 324 0.0 0.0 0.00 0.00 0.00 80 1015.2
20260906035252 23 323 0.0 0.0 0.00 0.00 0.00 80 1015.5
20260906034752 23 323 0.0 0.0 0.00 0.00 0.00 80 1015.2
20260906034252 23 323 0.0 0.0 0.00 0.00 0.00 79 1015.0
20260906033748 23 323 0.0 0.0 0.00 0.00 0.00 79 1015.4
20260906033247 23 323 0.0 0.0 0.00 0.00 0.00 79 1015.2
20260906032743 23 323 0.0 0.0 0.00 0.00 0.00 80 1015.3
20260906032243 23 323 0.0 0.0 0.00 0.00 0.00 80 1015.2
20260906031739 23 323 0.0 0.0 0.00 0.00 0.00 80 1014.8
20260906031234 23 323 0.0 0.0 0.00 0.00 0.00 80 1014.8
20260906030729 23 323 0.0 0.0 0.00 0.00 0.00 80 1014.9
20260906030224 23 323 0.0 0.0 0.00 0.00 0.00 80 1014.7
20260906025723 23 323 0.0 0.0 0.00 0.00 0.00 80 1014.8
20260906025218 23 323 0.0 0.0 0.00 0.00 0.00 80 1014.7
20260906024717 23 323 0.0 0.0 0.00 0.00 0.00 80 1014.7
20260906024216 23 323 0.0 0.0 0.00 0.00 0.00 80 1014.8
20260906023712 23 323 0.0 0.0 0.00 0.00 0.00 79 1014.6
20260906023207 23 324 0.0 0.0 0.00 0.00 0.00 79 1014.5
20260906022703 23 324 0.0 0.0 0.00 0.00 0.00 79 1014.8
20260906022158 23 324 0.0 0.0 0.00 0.00 0.00 79 1014.7
20260906021654 23 324 0.0 0.0 0.00 0.00 0.00 79 1014.7
20260906021152 23 324 0.0 0.0 0.00 0.00 0.00 79 1014.5
20260906020647 23 324 0.0 0.0 0.00 0.00 0.00 78 1014.5
20260906020142 24 324 0.0 0.0 0.00 0.00 0.00 78 1014.4
20260906015636 24 324 0.0 0.0 0.00 0.00 0.00 78 1014.3
20260906015134 24 324 0.0 0.0 0.00 0.00 0.00 78 1014.3
20260906014629 24 324 0.0 0.0 0.00 0.00 0.00 78 1014.2
20260906014126 24 324 0.0 0.0 0.00 0.00 0.00 77 1014.1
20260906013620 25 324 0.0 0.0 0.00 0.00 0.00 77 1014.1
20260906013116 25 324 0.0 0.0 0.00 0.00 0.00 76 1014.0
20260906012610 25 324 0.0 0.0 0.00 0.00 0.00 76 1014.2
20260906012105 25 324 0.0 0.0 0.00 0.00 0.00 76 1014.0
20260906011601 25 322 0.0 0.0 0.00 0.00 0.00 75 1014.3
20260906011055 25 324 0.0 0.0 0.00 0.00 0.00 75 1014.3
20260906010551 25 322 0.0 0.0 0.00 0.00 0.00 75 1014.1
20260906010047 25 323 0.0 0.0 0.00 0.00 0.00 75 1014.2
20260906005546 25 327 0.0 0.0 0.00 0.00 0.00 75 1014.2
20260906005045 25 306 0.0 0.0 0.00 0.00 0.00 75 1014.2
20260906004544 25 302 0.0 0.0 0.00 0.00 0.00 75 1014.2
20260906004040 26 322 0.0 0.0 0.00 0.00 0.00 75 1014.1
20260906003535 26 330 0.0 0.0 0.00 0.00 0.00 74 1014.2
20260906003031 26 330 0.0 0.0 0.00 0.00 0.00 74 1014.2
20260906002531 26 331 0.0 0.0 0.00 0.00 0.00 74 1014.2
20260906002025 26 302 0.0 0.0 0.00 0.00 0.00 73 1014.2
20260906001521 26 332 0.0 0.0 0.00 0.00 0.00 73 1014.2
20260906001016 27 301 0.0 0.0 0.00 0.00 0.00 73 1014.0
20260906000512 27 299 0.0 0.0 0.00 0.00 0.00 73 1014.2
20260906000012 27 323 0.0 0.0 0.00 0.00 0.00 73 1013.8
20260905235506 27 304 0.0 0.0 0.00 0.00 0.00 73 1013.6
20260905235000 27 335 0.0 0.0 0.00 0.00 0.00 72 1013.7
20260905234456 27 315 0.0 0.0 0.00 0.00 0.00 72 1013.8
20260905233950 28 303 0.0 0.0 0.00 0.00 0.00 71 1013.8
20260905233447 28 308 0.0 0.0 0.00 0.00 0.00 71 1013.9
20260905232945 28 304 0.0 0.0 0.00 0.00 0.00 71 1013.7
20260905232442 28 329 0.0 0.0 0.00 0.00 0.00 71 1013.9
20260905231936 28 329 0.0 0.0 0.00 0.00 0.00 71 1013.8
20260905231432 28 318 0.0 0.0 0.00 0.00 0.00 70 1013.8
20260905230923 29 329 0.0 0.0 0.00 0.00 0.00 71 1013.7
20260905230420 30 332 0.0 0.0 0.00 0.00 0.00 70 1013.6
20260905225919 30 329 0.0 0.0 0.00 0.00 0.00 69 1013.6
20260905225414 30 331 0.0 0.0 0.00 0.00 0.00 68 1013.6
20260905224909 30 323 0.0 0.0 0.00 0.00 0.00 68 1013.6
20260905224405 30 324 0.0 0.0 0.00 0.00 0.00 68 1013.8
20260905223900 30 323 0.0 0.0 0.00 0.00 0.00 68 1013.3
20260905223357 30 323 0.0 0.0 0.00 0.00 0.00 68 1013.2
20260905222852 30 332 0.0 0.0 0.00 0.00 0.00 67 1013.2
20260905222351 30 322 0.0 0.0 0.00 0.00 0.00 68 1013.3
20260905221847 30 324 0.0 0.0 0.00 0.00 0.00 67 1013.1
20260905221343 30 324 0.0 0.0 0.00 0.00 0.00 67 1013.3
20260905220838 30 323 0.0 0.0 0.00 0.00 0.00 68 1013.2
20260905220335 31 323 0.0 0.0 0.00 0.00 0.00 68 1013.4
20260905215834 30 322 0.0 0.0 0.00 0.00 0.00 69 1013.4
20260905215329 31 324 0.0 0.0 0.00 0.00 0.00 68 1013.3
20260905214826 31 322 0.0 0.0 0.00 0.00 0.00 68 1013.2
20260905214321 31 324 0.0 0.0 0.00 0.00 0.00 67 1013.2
20260905213816 31 315 0.0 0.0 0.00 0.00 0.00 67 1013.0
20260905213313 31 320 0.0 0.0 0.00 0.00 0.00 66 1013.0
20260905212813 31 324 0.0 0.0 0.00 0.00 0.00 67 1013.0
20260905212313 31 321 0.0 0.0 0.00 0.00 0.00 67 1012.9
20260905211807 31 324 0.0 0.0 0.00 0.00 0.00 68 1012.8
20260905211302 31 324 0.0 0.0 0.00 0.00 0.00 67 1013.0
20260905210759 32 320 0.0 0.0 0.00 0.00 0.00 67 1013.0
20260905210258 32 332 0.0 0.0 0.00 0.00 0.00 66 1013.1
20260905205757 32 331 0.0 0.0 0.00 0.00 0.00 66 1013.0
20260905205252 32 325 0.0 0.0 0.00 0.00 0.00 64 1013.0
20260905204751 33 324 0.0 0.0 0.00 0.00 0.00 64 1013.2
20260905204248 32 321 0.0 0.0 0.00 0.00 0.00 65 1013.1
20260905203747 33 323 0.0 0.0 0.00 0.00 0.00 63 1013.3
20260905203242 32 323 0.0 0.0 0.00 0.00 0.00 64 1013.2
20260905202738 33 318 0.0 0.0 0.00 0.00 0.00 63 1013.5
20260905202238 33 327 0.0 0.0 0.00 0.00 0.00 63 1013.2
20260905201733 33 325 0.0 0.0 0.00 0.00 0.00 63 1013.3
20260905201228 33 328 0.0 0.0 0.00 0.00 0.00 63 1013.1
20260905200723 33 329 0.0 0.0 0.00 0.00 0.00 63 1013.1
20260905200219 32 323 0.0 0.0 0.00 0.00 0.00 64 1013.1
20260905195717 32 325 0.0 0.0 0.00 0.00 0.00 64 1013.1
20260905195213 33 329 0.0 0.0 0.00 0.00 0.00 63 1013.2
20260905194708 33 315 0.0 0.0 0.00 0.00 0.00 63 1013.2
20260905194207 32 306 0.0 0.0 0.00 0.00 0.00 64 1013.3
20260905193701 33 324 0.0 0.0 0.00 0.00 0.00 64 1013.4
20260905193156 32 324 0.0 0.0 0.00 0.00 0.00 64 1013.4
20260905192652 33 326 0.0 0.0 0.00 0.00 0.00 63 1013.7
20260905192149 33 323 0.0 0.0 0.00 0.00 0.00 63 1013.2
20260905191648 32 324 0.0 0.0 0.00 0.00 0.00 63 1013.5
20260905191146 33 324 0.0 0.0 0.00 0.00 0.00 63 1013.4
20260905190644 33 324 0.0 0.0 0.00 0.00 0.00 62 1013.4
20260905190144 33 318 0.0 0.0 0.00 0.00 0.00 62 1013.4
20260905185637 33 313 0.0 0.0 0.00 0.00 0.00 63 1013.6
20260905185132 33 323 0.0 0.0 0.00 0.00 0.00 63 1013.7
20260905184632 32 324 0.0 0.0 0.00 0.00 0.00 64 1013.5
20260905184131 32 324 0.0 0.0 0.00 0.00 0.00 64 1013.6
20260905183631 33 324 0.0 0.0 0.00 0.00 0.00 62 1013.4
20260905183126 33 324 0.0 0.0 0.00 0.00 0.00 63 1013.6
20260905182625 33 323 0.0 0.0 0.00 0.00 0.00 63 1013.6
20260905182125 32 324 0.0 0.0 0.00 0.00 0.00 63 1013.8
20260905181620 32 324 0.0 0.0 0.00 0.00 0.00 64 1013.8
20260905181119 32 324 0.0 0.0 0.00 0.00 0.00 63 1013.8
20260905180614 32 318 0.0 0.0 0.00 0.00 0.00 64 1013.6
20260905180110 32 324 0.0 0.0 0.00 0.00 0.00 64 1013.7
20260905175609 33 324 0.0 0.0 0.00 0.00 0.00 62 1013.8
20260905175104 33 323 0.0 0.0 0.00 0.00 0.00 62 1013.8
20260905174600 33 323 0.0 0.0 0.00 0.00 0.00 63 1014.0
20260905174055 32 324 0.0 0.0 0.00 0.00 0.00 62 1013.9
20260905173552 32 324 0.0 0.0 0.00 0.00 0.00 62 1014.1
20260905173047 32 324 0.0 0.0 0.00 0.00 0.00 63 1013.9
20260905172545 32 324 0.0 0.0 0.00 0.00 0.00 62 1014.0
20260905172040 32 324 0.0 0.0 0.00 0.00 0.00 63 1014.1
20260905171537 32 324 0.0 0.0 0.00 0.00 0.00 62 1014.1
20260905171033 33 324 0.0 0.0 0.00 0.00 0.00 61 1014.1
20260905170529 32 324 0.0 0.0 0.00 0.00 0.00 63 1014.0
20260905170024 32 316 0.0 0.0 0.00 0.00 0.00 62 1014.2
20260905165519 32 324 0.0 0.0 0.00 0.00 0.00 63 1014.2
20260905165014 32 323 0.0 0.0 0.00 0.00 0.00 63 1014.2
20260905164514 31 317 0.0 0.0 0.00 0.00 0.00 64 1014.3
20260905164008 32 323 0.0 0.0 0.00 0.00 0.00 64 1014.3
20260905163504 31 324 0.0 0.0 0.00 0.00 0.00 63 1014.2
20260905163000 32 323 0.0 0.0 0.00 0.00 0.00 64 1014.3
20260905162456 31 317 0.0 0.0 0.00 0.00 0.00 64 1014.3
20260905161950 31 314 0.0 0.0 0.00 0.00 0.00 65 1014.2
20260905161449 31 324 0.0 0.0 0.00 0.00 0.00 65 1014.1
20260905160948 31 322 0.0 0.0 0.00 0.00 0.00 66 1014.1
20260905160442 31 320 0.0 0.0 0.00 0.00 0.00 65 1014.2
20260905155936 31 305 0.0 0.0 0.00 0.00 0.00 64 1014.2
20260905155431 31 324 0.0 0.0 0.00 0.00 0.00 65 1014.1
20260905154929 31 322 0.0 0.0 0.00 0.00 0.00 65 1014.2
20260905154425 31 323 0.0 0.0 0.00 0.00 0.00 65 1014.2
20260905153921 31 316 0.0 0.0 0.00 0.00 0.00 67 1014.1
20260905153417 31 317 0.0 0.0 0.00 0.00 0.00 67 1014.3
20260905152916 30 326 0.0 0.0 0.00 0.00 0.00 67 1014.1
20260905152416 30 319 0.0 0.0 0.00 0.00 0.00 68 1014.2
20260905151911 30 319 0.0 0.0 0.00 0.00 0.00 68 1014.1
20260905151407 30 321 0.0 0.0 0.00 0.00 0.00 66 1014.2
20260905150906 31 323 0.0 0.0 0.00 0.00 0.00 66 1013.9
20260905150400 30 324 0.0 0.0 0.00 0.00 0.00 66 1014.0
20260905145857 30 321 0.0 0.0 0.00 0.00 0.00 66 1013.8
20260905145352 30 323 0.0 0.0 0.00 0.00 0.00 67 1013.8
20260905144851 30 320 0.0 0.0 0.00 0.00 0.00 67 1014.0
20260905144342 30 319 0.0 0.0 0.00 0.00 0.00 67 1013.7
20260905143840 30 323 0.0 0.0 0.00 0.00 0.00 68 1013.7
20260905143334 30 317 0.0 0.0 0.00 0.00 0.00 69 1013.6
20260905142833 29 323 0.0 0.0 0.00 0.00 0.00 70 1013.6
20260905142327 29 318 0.0 0.0 0.00 0.00 0.00 71 1013.6
20260905141824 28 320 0.0 0.0 0.00 0.00 0.00 74 1013.4
20260905141324 28 318 0.0 0.0 0.00 0.00 0.00 75 1013.5
20260905140820 28 317 0.0 0.0 0.00 0.00 0.00 74 1013.6
20260905140319 28 318 0.0 0.0 0.00 0.00 0.00 75 1013.2
20260905135818 28 318 0.0 0.0 0.00 0.00 0.00 76 1013.4
20260905135314 28 318 0.0 0.0 0.00 0.00 0.00 76 1013.3
20260905134809 28 317 0.0 0.0 0.00 0.00 0.00 76 1013.2
20260905134303 27 317 0.0 0.0 0.00 0.00 0.00 76 1013.3
20260905133803 27 317 0.0 0.0 0.00 0.00 0.00 77 1013.4
20260905133258 27 317 0.0 0.0 0.00 0.00 0.00 78 1013.1
20260905132757 27 317 0.0 0.0 0.00 0.00 0.00 78 1013.2
20260905132253 27 317 0.0 0.0 0.00 0.00 0.00 78 1013.3
20260905131747 27 317 0.0 0.0 0.00 0.00 0.00 78 1013.3
20260905131237 27 316 0.0 0.0 0.00 0.00 0.00 78 1013.3
20260905130731 27 316 0.0 0.0 0.00 0.00 0.00 79 1013.2
20260905130231 26 316 0.0 0.0 0.00 0.00 0.00 80 1013.4
20260905125726 26 317 0.0 0.0 0.00 0.00 0.00 81 1013.3
20260905125221 26 317 0.0 0.0 0.00 0.00 0.00 82 1013.3
20260905124718 26 317 0.0 0.0 0.00 0.00 0.00 83 1013.0
20260905124213 25 317 0.0 0.0 0.00 0.00 0.00 84 1013.1
20260905123708 25 317 0.0 0.0 0.00 0.00 0.00 85 1013.1
20260905123206 25 317 0.0 0.0 0.00 0.00 0.00 85 1012.9
20260905122704 25 317 0.0 0.0 0.00 0.00 0.00 86 1013.0
20260905122159 25 317 0.0 0.0 0.00 0.00 0.00 86 1013.2
20260905121654 25 317 0.0 0.0 0.00 0.00 0.00 87 1013.0
20260905121150 25 317 0.0 0.0 0.00 0.00 0.00 88 1012.9
20260905120649 24 317 0.0 0.0 0.00 0.00 0.00 88 1012.7
20260905120143 24 317 0.0 0.0 0.00 0.00 0.00 88 1012.5
20260905115638 24 317 0.0 0.0 0.00 0.00 0.00 88 1012.3
20260905115133 24 317 0.0 0.0 0.00 0.00 0.00 87 1012.3
20260905114632 24 317 0.0 0.0 0.00 0.00 0.00 87 1012.2
20260905114130 24 317 0.0 0.0 0.00 0.00 0.00 87 1012.0
20260905113620 24 317 0.0 0.0 0.00 0.00 0.00 87 1012.2
20260905113115 24 317 0.0 0.0 0.00 0.00 0.00 87 1012.1
20260905112609 24 317 0.0 0.0 0.00 0.00 0.00 87 1012.0
20260905112106 24 317 0.0 0.0 0.00 0.00 0.00 86 1012.0
20260905111601 24 317 0.0 0.0 0.00 0.00 0.00 86 1012.0
20260905111059 24 317 0.0 0.0 0.00 0.00 0.00 86 1011.8
20260905110558 24 317 0.0 0.0 0.00 0.00 0.00 86 1011.9
20260905110049 24 317 0.0 0.0 0.00 0.00 0.00 86 1012.0
20260905105548 24 317 0.0 0.0 0.00 0.00 0.00 86 1012.0
20260905105048 25 317 0.0 0.0 0.00 0.00 0.00 85 1012.0
20260905104544 25 317 0.0 0.0 0.00 0.00 0.00 85 1011.9
20260905104043 25 317 0.0 0.0 0.00 0.00 0.00 85 1012.2
20260905103539 25 317 0.0 0.0 0.00 0.00 0.00 85 1012.0
20260905103035 25 317 0.0 0.0 0.00 0.00 0.00 85 1011.9
20260905102530 25 317 0.0 0.0 0.00 0.00 0.00 84 1012.0
20260905102026 25 317 0.0 0.0 0.00 0.00 0.00 84 1011.9
20260905101524 25 317 0.0 0.0 0.00 0.00 0.00 84 1012.0
20260905101023 25 317 0.0 0.0 0.00 0.00 0.00 83 1012.1
20260905100520 25 317 0.0 0.0 0.00 0.00 0.00 83 1011.8
20260905100014 25 317 0.0 0.0 0.00 0.00 0.00 82 1012.1
20260905095509 25 317 0.0 0.0 0.00 0.00 0.00 82 1012.2
20260905095004 25 317 0.0 0.0 0.00 0.00 0.00 82 1012.1
20260905094459 25 317 0.0 0.0 0.00 0.00 0.00 81 1012.0
20260905093957 25 317 0.0 0.0 0.00 0.00 0.00 81 1012.1
20260905093453 26 317 0.0 0.0 0.00 0.00 0.00 81 1012.2
20260905092949 26 317 0.0 0.0 0.00 0.00 0.00 81 1012.1
20260905092443 26 317 0.0 0.0 0.00 0.00 0.00 81 1012.1
20260905091938 26 317 0.0 0.0 0.00 0.00 0.00 81 1012.1
20260905091432 26 317 0.0 0.0 0.00 0.00 0.00 82 1012.0
20260905090931 25 317 0.0 0.0 0.00 0.00 0.00 82 1012.0
20260905090427 25 317 0.0 0.0 0.00 0.00 0.00 83 1011.7
20260905085927 25 317 0.0 0.0 0.00 0.00 0.00 83 1012.0
20260905085425 25 317 0.0 0.0 0.00 0.00 0.00 83 1012.1
20260905084922 25 317 0.0 0.0 0.00 0.00 0.00 83 1012.1
20260905084421 25 317 0.0 0.0 0.00 0.00 0.00 83 1012.2
20260905083916 25 317 0.0 0.0 0.00 0.00 0.00 83 1012.2
20260905083412 26 317 0.0 0.0 0.00 0.00 0.00 82 1012.3
20260905082907 26 317 0.0 0.0 0.00 0.00 0.00 82 1012.4
20260905082403 26 317 0.0 0.0 0.00 0.00 0.00 82 1012.4
20260905081853 26 317 0.0 0.0 0.00 0.00 0.00 82 1012.5
20260905081348 26 317 0.0 0.0 0.00 0.00 0.00 81 1012.3
20260905080846 26 317 0.0 0.0 0.00 0.00 0.00 81 1012.5
20260905080341 26 317 0.0 0.0 0.00 0.00 0.00 80 1012.5
20260905075840 26 317 0.0 0.0 0.00 0.00 0.00 80 1012.5
20260905075340 26 317 0.0 0.0 0.00 0.00 0.00 80 1012.3
20260905074839 26 317 0.0 0.0 0.00 0.00 0.00 80 1012.3
20260905074335 26 317 0.0 0.0 0.00 0.00 0.00 80 1012.2
20260905073831 26 317 0.0 0.0 0.00 0.00 0.00 80 1012.4
20260905073325 26 317 0.0 0.0 0.00 0.00 0.00 80 1012.5
20260905072820 26 317 0.0 0.0 0.00 0.00 0.00 80 1012.4
20260905072315 26 317 0.0 0.0 0.00 0.00 0.00 80 1012.4
20260905071812 26 317 0.0 0.0 0.00 0.00 0.00 80 1012.4
20260905071308 26 317 0.0 0.0 0.00 0.00 0.00 80 1012.4
20260905070802 26 317 0.0 0.0 0.00 0.00 0.00 80 1012.4